TimeEST,TemperatureF,Dew PointF,Humidity,Sea Level PressureIn,VisibilityMPH,Wind Direction,Wind SpeedMPH,Gust SpeedMPH,PrecipitationIn,Events,Conditions,WindDirDegrees,DateUTC
12:53 AM,28.9,23.0,78,29.99,9.0,SSE,4.6,-,N/A,,Partly Cloudy,160,2013-01-07 05:53:00
1:53 AM,28.0,23.0,81,30.01,10.0,Calm,Calm,-,N/A,,Mostly Cloudy,0,2013-01-07 06:53:00
2:53 AM,30.0,24.1,79,30.03,10.0,Calm,Calm,-,N/A,,Overcast,0,2013-01-07 07:53:00
3:53 AM,27.0,23.0,85,30.04,10.0,Calm,Calm,-,N/A,,Clear,0,2013-01-07 08:53:00
4:53 AM,27.0,21.9,81,30.06,10.0,Calm,Calm,-,N/A,,Mostly Cloudy,0,2013-01-07 09:53:00
5:53 AM,26.1,21.9,84,30.11,8.0,Calm,Calm,-,0.00,Snow,Light Snow,0,2013-01-07 10:53:00
6:53 AM,33.8,28.4,81,30.09,9.0,NNW,8.1,-,N/A,,Mostly Cloudy,330,2013-01-07 11:53:00
7:53 AM,33.1,23.0,66,30.19,10.0,NNW,13.8,-,N/A,,Partly Cloudy,330,2013-01-07 12:53:00
8:53 AM,33.1,21.9,64,30.26,10.0,NNW,9.2,-,N/A,,Partly Cloudy,340,2013-01-07 13:53:00
9:53 AM,32.0,19.0,59,30.31,10.0,NW,13.8,24.2,N/A,,Partly Cloudy,320,2013-01-07 14:53:00
10:53 AM,32.0,18.0,56,30.31,10.0,NW,15.0,-,N/A,,Partly Cloudy,310,2013-01-07 15:53:00
11:53 AM,32.0,17.1,54,30.32,10.0,NW,10.4,-,N/A,,Clear,320,2013-01-07 16:53:00
12:53 PM,32.0,15.1,50,30.35,10.0,WNW,13.8,-,N/A,,Clear,290,2013-01-07 17:53:00
1:53 PM,33.8,12.2,41,30.30,10.0,NW,6.9,-,N/A,,Clear,320,2013-01-07 18:53:00
2:53 PM,33.1,12.9,43,30.38,10.0,NNW,8.1,-,N/A,,Clear,340,2013-01-07 19:53:00
3:53 PM,32.0,10.0,40,30.39,10.0,NW,6.9,-,N/A,,Clear,320,2013-01-07 20:53:00
4:53 PM,28.0,12.0,51,30.40,10.0,Calm,Calm,-,N/A,,Clear,0,2013-01-07 21:53:00
5:53 PM,24.8,12.2,59,30.36,10.0,Calm,Calm,-,N/A,,Clear,0,2013-01-07 22:53:00
6:53 PM,24.1,12.0,60,30.41,10.0,Calm,Calm,-,N/A,,Clear,0,2013-01-07 23:53:00
7:53 PM,21.0,10.9,65,30.42,10.0,Calm,Calm,-,N/A,,Clear,0,2013-01-08 00:53:00
8:53 PM,21.0,10.9,65,30.41,10.0,Calm,Calm,-,N/A,,Clear,0,2013-01-08 01:53:00
9:53 PM,19.0,10.9,71,30.42,10.0,Calm,Calm,-,N/A,,Clear,0,2013-01-08 02:53:00
10:53 PM,15.1,9.0,77,30.40,10.0,Calm,Calm,-,N/A,,Clear,0,2013-01-08 03:53:00
11:53 PM,16.0,10.0,77,30.39,9.0,Calm,Calm,-,N/A,,Clear,0,2013-01-08 04:53:00